AirNav   Everest Fuels
 
 870 users online  

A05 Dixie USFS Airport
Dixie, Idaho, USA

GOING TO DIXIE?


FAA INFORMATION EFFECTIVE 25 FEBRUARY 2021

Location

FAA Identifier: A05
Lat/Long: 45-31-14.6660N 115-31-03.4560W
45-31.244433N 115-31.057600W
45.5207406,-115.5176267
(estimated)
Elevation: 5148 ft. / 1569.1 m (surveyed)
Variation: 18E (1985)
From city: 3 miles SW of DIXIE, ID
Time zone: UTC -8 (UTC -7 during Daylight Saving Time)
Zip code: 83525

Airport Operations

Airport use: Open to the public
Activation date: 04/1940
Control tower: no
ARTCC: SEATTLE CENTER
FSS: BOISE FLIGHT SERVICE STATION
NOTAMs facility: BOI (NOTAM-D service available)
Attendance: UNATNDD
Wind indicator: yes
Segmented circle: no

Airport Communications

CTAF: 122.9

Airport Services

Airframe service: NONE
Powerplant service: NONE

Runway Information

Runway 18/36

Dimensions: 4500 x 100 ft. / 1372 x 30 m
Surface: turf, in fair condition
ONGOING RODENT DMG FIRST 1000 FT OF RWY 36.
Runway edge markings: RY 18/36 THLDS MKD WITH BEAMS PAINTED WHITE.
RUNWAY 18  RUNWAY 36
Traffic pattern: leftleft
Obstructions: 70 ft. trees, 75 ft. from runway, 100 ft. right of centerline, 1:1 slope to clear550 ft. hill, 3500 ft. from runway, 6:1 slope to clear

Airport Ownership and Management from official FAA records

Ownership: Publicly-owned
Owner: U S FOREST SERVICE
FEDERAL BUILDING
MISSOULA, MT 59801
Phone 406-329-3511
Manager: NEZPERCE FOREST, AIR OFFICER
111 AIRPORT RD
GRANGEVILLE, ID 83530
Phone 208-983-9571

Airport Operational Statistics

Aircraft based on the field: 1
Helicopters: 1
    
Aircraft operations: avg 20/week *
95% transient general aviation
5% air taxi
* for 12-month period ending 27 September 2017

Additional Remarks

AIRSTRIP IS LOCATED IN HIGH TIMBER MOUNTAIN BASIN.
RCMD LDG RWY 36 & DEP RWY 18 - WHEN WND COND PMT; MAKE RITE TURN DOWN CROOKED CREEK AFT DEP.
NO WINTER MAINTENANCE.
NO TELEPHONE AVBL AT AIRPORT.
FOR CD CTC SEATTLE ARTCC AT 253-351-3694.

Instrument Procedures

There are no published instrument procedures at A05.

Some nearby airports with instrument procedures:

KGIC - Idaho County Airport (36 nm NW)
KMYL - Mc Call Municipal Airport (45 nm SW)
6S5 - Ravalli County Airport (73 nm NE)
KSMN - Lemhi County Airport (73 nm E)
KLWS - Lewiston-Nez Perce County Airport (81 nm NW)
 
Loc | Ops | Rwys | IFR | FBO | Links
Com | Nav | Svcs | Stats | Notes
Area around A05 (Dixie USFS Airport)
 
Road maps at: MapQuest Bing Google
 
Aerial photo
No photo
 
Sectional chart

 
Airport distance calculator
Flying to Dixie USFS Airport? Find the distance to fly.

From to A05

Sunrise and sunset
Times for 08-Mar-2021
 Local
(UTC-8)
 Zulu
(UTC)
Morning civil twilight05:3913:39
Sunrise06:0914:09
Sunset17:3701:37
Evening civil twilight18:0702:07

Current date and time
Zulu (UTC)  08-Mar-2021 13:21:21
Local (UTC-8)  08-Mar-2021 05:21:21
 
METAR
KGIC 
36nm NW 
081255Z AUTO 00000KT 1/4SM OVC002 M02/M02 A3002 RMK AO1
KP69 
38nm N 
081252Z AUTO 00000KT 01/00 A3011 RMK AO1 SLP215 T00060000
KMYL 
45nm SW 
081251Z AUTO 36010KT 10SM OVC060 M01/M06 A2988 RMK AO2 SLP138 T10111061
TAF
KMYL 
45nm SW 
081120Z 0812/0912 35006KT P6SM VCSH OVC060 FM081900 17008KT 2SM -SN OVC015 FM082300 17006KT 4SM -SHSN BKN020
NOTAMs
Click for the latest NOTAMs
NOTAMs are issued by the DoD/FAA and will open in a separate window not controlled by AirNav.

 

 
 

Would you like to see your business listed on this page?

 If your business provides an interesting product or service to pilots, flight crews, aircraft, or users of the Dixie USFS Airport, you should consider listing it here.  To start the listing process, click on the button below
 
Add a business
 

Other Pages about Dixie USFS Airport

www.flyidaho.org/...
 
Update a link
 
Copyright © AirNav, LLC. All rights reserved. Privacy Policy  Contact